Location: ?????????
(55.6553°N, 38.9075°E)
Time: 01:03:24
(UTC+00:00)

Cosmos 2322 Rocket - Pass Details

Date: 18 October 2019
Orbit: 833 x 850 km, 71.0° (Epoch: 20 November)

Event Time Altitude Azimuth Distance (km) Brightness Sun altitude
Exits shadow 00:23:59 65° 25° (NNE) 920 2.4 -30.2°
Drops below altitude 10° 00:28:45 10° 34° (NE) 2,457 5.4 -29.7°
Sets 00:31:12 0° 35° (NE) 3,395 6.3 -29.4°
